TimePDT,TemperatureF,Dew PointF,Humidity,Sea Level PressureIn,VisibilityMPH,Wind Direction,Wind SpeedMPH,Gust SpeedMPH,PrecipitationIn,Events,Conditions,WindDirDegrees,DateUTC
12:15 AM,44.6,44.6,100,30.08,10.0,NW,15.0,-,N/A,,Overcast,310,2013-04-01 07:15:00
12:35 AM,44.6,44.6,100,30.08,10.0,WNW,15.0,21.9,N/A,,Overcast,300,2013-04-01 07:35:00
12:55 AM,44.6,44.6,100,30.08,9.0,WNW,12.7,19.6,N/A,,Overcast,300,2013-04-01 07:55:00
1:15 AM,44.6,44.6,100,30.08,9.0,NW,12.7,-,N/A,,Overcast,310,2013-04-01 08:15:00
1:35 AM,44.6,44.6,100,30.08,4.0,NW,13.8,21.9,N/A,Rain,Light Rain,320,2013-04-01 08:35:00
2:15 AM,42.8,42.8,100,30.09,10.0,NW,15.0,20.7,N/A,,Mostly Cloudy,320,2013-04-01 09:15:00
2:35 AM,42.8,41.0,93,30.09,10.0,NW,13.8,19.6,N/A,,Overcast,320,2013-04-01 09:35:00
2:55 AM,42.8,41.0,93,30.09,10.0,NW,11.5,-,N/A,,Overcast,310,2013-04-01 09:55:00
3:15 AM,42.8,41.0,93,30.08,10.0,NW,16.1,20.7,N/A,,Overcast,320,2013-04-01 10:15:00
3:35 AM,42.8,41.0,93,30.08,10.0,NW,13.8,21.9,N/A,,Mostly Cloudy,310,2013-04-01 10:35:00
3:55 AM,41.0,41.0,100,30.08,10.0,NW,13.8,20.7,N/A,,Mostly Cloudy,310,2013-04-01 10:55:00
4:15 AM,41.0,41.0,100,30.08,10.0,NW,10.4,-,N/A,,Overcast,320,2013-04-01 11:15:00
4:35 AM,41.0,41.0,100,30.08,9.0,NW,11.5,-,N/A,,Overcast,320,2013-04-01 11:35:00
4:55 AM,41.0,41.0,100,30.09,9.0,NW,13.8,-,N/A,,Overcast,310,2013-04-01 11:55:00
5:15 AM,41.0,41.0,100,30.09,10.0,WNW,13.8,21.9,N/A,,Overcast,300,2013-04-01 12:15:00
5:35 AM,41.0,41.0,100,30.09,10.0,NW,16.1,-,N/A,Rain,Light Rain,310,2013-04-01 12:35:00
5:55 AM,41.0,41.0,100,30.09,10.0,NW,16.1,-,N/A,,Overcast,310,2013-04-01 12:55:00
6:15 AM,41.0,41.0,100,30.10,10.0,NW,12.7,-,N/A,,Overcast,310,2013-04-01 13:15:00
6:35 AM,41.0,41.0,100,30.10,10.0,NW,13.8,18.4,N/A,,Overcast,310,2013-04-01 13:35:00
6:55 AM,41.0,39.2,93,30.10,10.0,NW,15.0,19.6,N/A,,Overcast,310,2013-04-01 13:55:00
7:15 AM,41.0,39.2,93,30.11,10.0,WNW,12.7,-,N/A,,Overcast,300,2013-04-01 14:15:00
7:35 AM,41.0,41.0,100,30.11,10.0,NW,10.4,-,N/A,,Overcast,310,2013-04-01 14:35:00
7:55 AM,41.0,41.0,100,30.12,9.0,NW,11.5,-,N/A,,Overcast,310,2013-04-01 14:55:00
8:15 AM,41.0,41.0,100,30.12,8.0,NW,11.5,-,N/A,,Overcast,310,2013-04-01 15:15:00
8:35 AM,41.0,41.0,100,30.13,9.0,NW,13.8,-,N/A,,Overcast,310,2013-04-01 15:35:00
8:55 AM,42.8,41.0,93,30.14,9.0,WNW,12.7,-,N/A,,Overcast,300,2013-04-01 15:55:00
9:15 AM,42.8,41.0,93,30.14,9.0,WNW,12.7,-,N/A,,Overcast,300,2013-04-01 16:15:00
9:35 AM,44.6,41.0,87,30.14,10.0,WNW,12.7,-,N/A,,Overcast,300,2013-04-01 16:35:00
9:55 AM,44.6,41.0,87,30.15,10.0,NW,13.8,-,N/A,,Overcast,310,2013-04-01 16:55:00
10:15 AM,44.6,39.2,81,30.15,10.0,NW,16.1,21.9,N/A,,Overcast,320,2013-04-01 17:15:00
10:35 AM,46.4,39.2,76,30.15,10.0,NW,17.3,21.9,N/A,,Overcast,320,2013-04-01 17:35:00
10:55 AM,48.2,41.0,76,30.15,10.0,NW,16.1,-,N/A,,Overcast,310,2013-04-01 17:55:00
11:15 AM,48.2,39.2,71,30.15,10.0,NW,15.0,20.7,N/A,,Overcast,310,2013-04-01 18:15:00
11:35 AM,48.2,37.4,66,30.16,10.0,NW,15.0,20.7,N/A,,Overcast,320,2013-04-01 18:35:00
11:55 AM,50.0,37.4,62,30.15,10.0,NW,15.0,19.6,N/A,,Overcast,310,2013-04-01 18:55:00
12:15 PM,51.8,37.4,58,30.15,10.0,NW,18.4,24.2,N/A,,Overcast,320,2013-04-01 19:15:00
12:35 PM,51.8,37.4,58,30.15,10.0,NW,17.3,24.2,N/A,,Mostly Cloudy,310,2013-04-01 19:35:00
12:55 PM,51.8,37.4,58,30.14,10.0,NW,18.4,24.2,N/A,,Overcast,320,2013-04-01 19:55:00
1:15 PM,53.6,37.4,54,30.14,10.0,NNW,17.3,24.2,N/A,,Overcast,330,2013-04-01 20:15:00
1:35 PM,55.4,37.4,51,30.14,10.0,NNW,17.3,23.0,N/A,,Overcast,330,2013-04-01 20:35:00
1:55 PM,53.6,37.4,54,30.13,10.0,NW,18.4,23.0,N/A,,Mostly Cloudy,320,2013-04-01 20:55:00
2:15 PM,53.6,35.6,51,30.12,10.0,NNW,18.4,21.9,N/A,,Mostly Cloudy,330,2013-04-01 21:15:00
2:35 PM,53.6,37.4,54,30.12,8.0,NNW,18.4,26.5,N/A,,Mostly Cloudy,330,2013-04-01 21:35:00
2:55 PM,53.6,37.4,54,30.11,10.0,NNW,17.3,25.3,N/A,,Mostly Cloudy,330,2013-04-01 21:55:00
3:15 PM,53.6,37.4,54,30.11,10.0,NW,19.6,26.5,N/A,,Scattered Clouds,310,2013-04-01 22:15:00
3:35 PM,55.4,35.6,47,30.10,10.0,NW,18.4,27.6,N/A,,Partly Cloudy,320,2013-04-01 22:35:00
3:55 PM,55.4,35.6,47,30.10,10.0,NW,19.6,27.6,N/A,,Clear,310,2013-04-01 22:55:00
4:15 PM,55.4,35.6,47,30.10,10.0,NW,20.7,27.6,N/A,,Clear,310,2013-04-01 23:15:00
4:35 PM,53.6,37.4,54,30.09,10.0,WNW,18.4,25.3,N/A,,Clear,300,2013-04-01 23:35:00
4:55 PM,55.4,37.4,51,30.09,10.0,NW,19.6,23.0,N/A,,Scattered Clouds,320,2013-04-01 23:55:00
5:15 PM,53.6,35.6,51,30.09,10.0,WNW,20.7,28.8,N/A,,Mostly Cloudy,300,2013-04-02 00:15:00
5:35 PM,53.6,35.6,51,30.09,10.0,WNW,13.8,23.0,N/A,,Partly Cloudy,300,2013-04-02 00:35:00
5:55 PM,53.6,37.4,54,30.09,10.0,WNW,15.0,21.9,N/A,,Partly Cloudy,300,2013-04-02 00:55:00
6:15 PM,53.6,37.4,54,30.08,10.0,NW,16.1,23.0,N/A,,Partly Cloudy,310,2013-04-02 01:15:00
6:35 PM,51.8,37.4,58,30.08,10.0,West,17.3,20.7,N/A,,Mostly Cloudy,280,2013-04-02 01:35:00
6:55 PM,50.0,37.4,62,30.08,10.0,WNW,13.8,21.9,N/A,,Mostly Cloudy,290,2013-04-02 01:55:00
7:15 PM,50.0,37.4,62,30.08,10.0,West,18.4,25.3,N/A,,Partly Cloudy,280,2013-04-02 02:15:00
7:35 PM,50.0,37.4,62,30.09,10.0,WNW,17.3,25.3,N/A,,Mostly Cloudy,290,2013-04-02 02:35:00
7:55 PM,50.0,37.4,62,30.09,10.0,WNW,15.0,23.0,N/A,,Overcast,290,2013-04-02 02:55:00
8:15 PM,50.0,37.4,62,30.09,10.0,WNW,13.8,19.6,N/A,,Overcast,290,2013-04-02 03:15:00
8:35 PM,48.2,35.6,62,30.10,10.0,WNW,15.0,20.7,N/A,,Mostly Cloudy,290,2013-04-02 03:35:00
8:55 PM,48.2,37.4,66,30.10,10.0,WNW,15.0,23.0,N/A,,Overcast,300,2013-04-02 03:55:00
9:15 PM,48.2,37.4,66,30.10,10.0,WNW,16.1,21.9,N/A,,Overcast,300,2013-04-02 04:15:00
9:35 PM,48.2,37.4,66,30.10,10.0,WNW,13.8,23.0,N/A,,Overcast,290,2013-04-02 04:35:00
9:55 PM,46.4,37.4,71,30.10,10.0,WNW,11.5,20.7,N/A,,Mostly Cloudy,290,2013-04-02 04:55:00
10:15 PM,46.4,37.4,71,30.11,10.0,WNW,11.5,17.3,N/A,,Mostly Cloudy,300,2013-04-02 05:15:00
10:35 PM,46.4,37.4,71,30.12,10.0,WNW,9.2,-,N/A,,Mostly Cloudy,300,2013-04-02 05:35:00
10:55 PM,46.4,37.4,71,30.12,10.0,WNW,11.5,-,N/A,,Mostly Cloudy,300,2013-04-02 05:55:00
11:15 PM,46.4,37.4,71,30.11,10.0,WNW,15.0,-,N/A,,Mostly Cloudy,290,2013-04-02 06:15:00
11:35 PM,44.6,37.4,76,30.11,10.0,WNW,12.7,-,N/A,,Partly Cloudy,300,2013-04-02 06:35:00
11:55 PM,44.6,39.2,81,30.11,10.0,WNW,15.0,18.4,N/A,,Partly Cloudy,300,2013-04-02 06:55:00